Time,TemperatureF,DewpointF,PressureIn,WindDirection,WindDirectionDegrees,WindSpeedMPH,WindSpeedGustMPH,Humidity,HourlyPrecipIn,Conditions,Clouds,dailyrainin,SoftwareType,DateUTC
2013-06-02 00:01:00,68.5,65.8,29.72,WSW,242,0.0,0.0,91,0.00,,,0.00,Wunderground v.1.15,2013-06-02 04:01:00,
2013-06-02 00:06:00,68.5,65.8,29.71,WSW,242,0.0,0.0,91,0.00,,,0.00,Wunderground v.1.15,2013-06-02 04:06:00,
2013-06-02 00:15:00,68.7,66.3,29.71,SW,229,0.0,0.0,92,0.00,,,0.00,Wunderground v.1.15,2013-06-02 04:15:00,
2013-06-02 00:21:00,68.9,66.5,29.71,SW,235,0.0,1.0,92,0.00,,,0.00,Wunderground v.1.15,2013-06-02 04:21:00,
2013-06-02 00:25:00,69.0,66.3,29.71,SW,234,0.0,1.0,91,0.00,,,0.00,Wunderground v.1.15,2013-06-02 04:25:00,
2013-06-02 00:36:00,69.1,66.7,29.71,SW,231,0.0,0.0,92,0.00,,,0.00,Wunderground v.1.15,2013-06-02 04:36:00,
2013-06-02 00:46:00,69.1,67.0,29.71,SSW,206,0.0,0.0,93,0.00,,,0.00,Wunderground v.1.15,2013-06-02 04:46:00,
2013-06-02 00:55:00,69.0,66.9,29.70,SSW,212,0.0,0.0,93,0.00,,,0.00,Wunderground v.1.15,2013-06-02 04:55:00,
2013-06-02 01:01:00,69.0,66.9,29.70,SW,216,1.0,1.0,93,0.00,,,0.00,Wunderground v.1.15,2013-06-02 05:01:00,
2013-06-02 01:10:00,69.0,67.2,29.70,SW,224,1.0,1.0,94,0.00,,,0.00,Wunderground v.1.15,2013-06-02 05:10:00,
2013-06-02 01:16:00,68.9,67.1,29.70,NE,46,1.0,1.0,94,0.00,,,0.00,Wunderground v.1.15,2013-06-02 05:16:00,
2013-06-02 01:26:00,68.7,66.9,29.70,SW,222,1.0,1.0,94,0.00,,,0.00,Wunderground v.1.15,2013-06-02 05:26:00,
2013-06-02 01:35:00,68.4,66.6,29.70,SW,228,1.0,3.0,94,0.00,,,0.00,Wunderground v.1.15,2013-06-02 05:35:00,
2013-06-02 01:41:00,68.3,66.5,29.69,SW,224,1.0,1.0,94,0.00,,,0.00,Wunderground v.1.15,2013-06-02 05:41:00,
2013-06-02 01:51:00,68.2,66.7,29.69,SW,231,0.0,0.0,95,0.00,,,0.00,Wunderground v.1.15,2013-06-02 05:51:00,
2013-06-02 02:01:00,68.0,66.5,29.69,SW,232,0.0,0.0,95,0.00,,,0.00,Wunderground v.1.15,2013-06-02 06:01:00,
2013-06-02 02:10:00,67.8,66.3,29.69,SSW,195,0.0,1.0,95,0.00,,,0.00,Wunderground v.1.15,2013-06-02 06:10:00,
2013-06-02 02:20:00,67.7,66.2,29.69,SW,228,1.0,1.0,95,0.00,,,0.00,Wunderground v.1.15,2013-06-02 06:20:00,
2013-06-02 02:31:00,67.5,66.0,29.69,SW,229,1.0,1.0,95,0.00,,,0.00,Wunderground v.1.15,2013-06-02 06:31:00,
2013-06-02 02:40:00,67.3,65.8,29.69,SE,129,1.0,1.0,95,0.00,,,0.00,Wunderground v.1.15,2013-06-02 06:40:00,
2013-06-02 02:46:00,67.2,65.4,29.69,SW,227,1.0,1.0,94,0.00,,,0.00,Wunderground v.1.15,2013-06-02 06:46:00,
2013-06-02 02:56:00,67.1,65.3,29.70,SW,233,1.0,1.0,94,0.00,,,0.00,Wunderground v.1.15,2013-06-02 06:56:00,
2013-06-02 03:01:00,67.0,65.2,29.70,SSW,210,1.0,1.0,94,0.00,,,0.00,Wunderground v.1.15,2013-06-02 07:01:00,
2013-06-02 03:11:00,66.8,65.0,29.70,WSW,240,1.0,2.0,94,0.00,,,0.00,Wunderground v.1.15,2013-06-02 07:11:00,
2013-06-02 03:21:00,66.8,64.7,29.70,WSW,248,1.0,1.0,93,0.00,,,0.00,Wunderground v.1.15,2013-06-02 07:21:00,
2013-06-02 03:30:00,66.8,64.4,29.70,West,262,2.0,2.0,92,0.00,,,0.00,Wunderground v.1.15,2013-06-02 07:30:00,
2013-06-02 03:36:00,66.7,64.3,29.70,SW,216,1.0,2.0,92,0.00,,,0.00,Wunderground v.1.15,2013-06-02 07:36:00,
2013-06-02 03:46:00,66.5,64.1,29.69,SE,146,1.0,1.0,92,0.00,,,0.00,Wunderground v.1.15,2013-06-02 07:46:00,
2013-06-02 03:55:00,66.3,63.9,29.69,SW,229,1.0,2.0,92,0.00,,,0.00,Wunderground v.1.15,2013-06-02 07:55:00,
2013-06-02 04:01:00,66.2,63.8,29.69,WSW,245,1.0,2.0,92,0.00,,,0.00,Wunderground v.1.15,2013-06-02 08:01:00,
2013-06-02 04:10:00,66.2,63.8,29.70,WSW,240,1.0,1.0,92,0.00,,,0.00,Wunderground v.1.15,2013-06-02 08:10:00,
2013-06-02 04:16:00,66.2,63.8,29.69,WNW,292,1.0,1.0,92,0.00,,,0.00,Wunderground v.1.15,2013-06-02 08:16:00,
2013-06-02 04:26:00,66.2,63.5,29.70,SW,218,2.0,2.0,91,0.00,,,0.00,Wunderground v.1.15,2013-06-02 08:26:00,
2013-06-02 04:35:00,65.9,63.2,29.70,WSW,250,1.0,2.0,91,0.00,,,0.00,Wunderground v.1.15,2013-06-02 08:35:00,
2013-06-02 04:41:00,65.9,63.2,29.70,SW,236,2.0,2.0,91,0.00,,,0.00,Wunderground v.1.15,2013-06-02 08:41:00,
2013-06-02 04:50:00,65.7,63.0,29.70,SW,228,1.0,1.0,91,0.00,,,0.00,Wunderground v.1.15,2013-06-02 08:50:00,
2013-06-02 04:56:00,65.6,63.2,29.70,SW,226,1.0,2.0,92,0.00,,,0.00,Wunderground v.1.15,2013-06-02 08:56:00,
2013-06-02 05:01:00,65.5,63.1,29.70,SW,224,1.0,1.0,92,0.00,,,0.00,Wunderground v.1.15,2013-06-02 09:01:00,
2013-06-02 05:11:00,65.3,62.9,29.70,SW,226,1.0,1.0,92,0.00,,,0.00,Wunderground v.1.15,2013-06-02 09:11:00,
2013-06-02 05:21:00,65.2,62.8,29.71,West,274,1.0,1.0,92,0.00,,,0.00,Wunderground v.1.15,2013-06-02 09:21:00,
2013-06-02 05:31:00,65.0,62.9,29.71,SW,226,0.0,1.0,93,0.00,,,0.00,Wunderground v.1.15,2013-06-02 09:31:00,
2013-06-02 05:40:00,64.8,62.7,29.71,SW,233,1.0,1.0,93,0.00,,,0.00,Wunderground v.1.15,2013-06-02 09:40:00,
2013-06-02 05:46:00,64.6,62.5,29.71,WSW,256,1.0,2.0,93,0.00,,,0.00,Wunderground v.1.15,2013-06-02 09:46:00,
2013-06-02 05:56:00,64.7,62.6,29.71,SW,236,1.0,1.0,93,0.00,,,0.00,Wunderground v.1.15,2013-06-02 09:56:00,
2013-06-02 06:01:00,64.8,62.4,29.72,WNW,303,1.0,2.0,92,0.00,,,0.00,Wunderground v.1.15,2013-06-02 10:01:00,
2013-06-02 06:11:00,64.9,61.9,29.72,WSW,255,2.0,4.0,90,0.00,,,0.00,Wunderground v.1.15,2013-06-02 10:11:00,
2013-06-02 06:20:00,64.7,60.4,29.72,WSW,254,2.0,2.0,86,0.00,,,0.00,Wunderground v.1.15,2013-06-02 10:20:00,
2013-06-02 06:26:00,64.7,60.1,29.72,WSW,251,2.0,2.0,85,0.00,,,0.00,Wunderground v.1.15,2013-06-02 10:26:00,
2013-06-02 06:35:00,64.5,59.6,29.73,WSW,250,2.0,2.0,84,0.00,,,0.00,Wunderground v.1.15,2013-06-02 10:35:00,
2013-06-02 06:41:00,64.5,59.6,29.73,WSW,255,2.0,2.0,84,0.00,,,0.00,Wunderground v.1.15,2013-06-02 10:41:00,
2013-06-02 06:51:00,64.5,59.6,29.74,SW,229,2.0,2.0,84,0.00,,,0.00,Wunderground v.1.15,2013-06-02 10:51:00,
2013-06-02 07:01:00,64.4,59.8,29.74,WSW,240,2.0,2.0,85,0.00,,,0.00,Wunderground v.1.15,2013-06-02 11:01:00,
2013-06-02 07:10:00,64.5,60.2,29.75,WSW,248,2.0,2.0,86,0.00,,,0.00,Wunderground v.1.15,2013-06-02 11:10:00,
2013-06-02 07:16:00,64.6,60.0,29.75,WSW,243,2.0,2.0,85,0.00,,,0.00,Wunderground v.1.15,2013-06-02 11:16:00,
2013-06-02 07:25:00,64.5,59.9,29.75,SSW,210,2.0,2.0,85,0.00,,,0.00,Wunderground v.1.15,2013-06-02 11:25:00,
2013-06-02 07:31:00,64.6,60.3,29.75,SW,214,2.0,2.0,86,0.00,,,0.00,Wunderground v.1.15,2013-06-02 11:31:00,
2013-06-02 07:41:00,64.7,60.4,29.75,WSW,243,2.0,2.0,86,0.00,,,0.00,Wunderground v.1.15,2013-06-02 11:41:00,
2013-06-02 07:50:00,64.9,60.3,29.76,West,268,2.0,2.0,85,0.00,,,0.00,Wunderground v.1.15,2013-06-02 11:50:00,
2013-06-02 07:56:00,65.1,60.5,29.76,SSW,195,2.0,2.0,85,0.00,,,0.00,Wunderground v.1.15,2013-06-02 11:56:00,
2013-06-02 08:01:00,65.1,60.1,29.76,SW,235,2.0,2.0,84,0.00,,,0.00,Wunderground v.1.15,2013-06-02 12:01:00,
2013-06-02 08:11:00,65.3,60.3,29.76,WSW,257,2.0,2.0,84,0.00,,,0.00,Wunderground v.1.15,2013-06-02 12:11:00,
2013-06-02 08:21:00,65.8,60.2,29.76,WSW,241,2.0,2.0,82,0.00,,,0.00,Wunderground v.1.15,2013-06-02 12:21:00,
2013-06-02 08:31:00,66.1,60.8,29.76,West,269,2.0,2.0,83,0.00,,,0.00,Wunderground v.1.15,2013-06-02 12:31:00,
2013-06-02 08:40:00,66.4,60.4,29.76,WSW,242,2.0,4.0,81,0.00,,,0.00,Wunderground v.1.15,2013-06-02 12:40:00,
2013-06-02 08:46:00,66.8,60.4,29.77,WSW,241,3.0,7.0,80,0.00,,,0.00,Wunderground v.1.15,2013-06-02 12:46:00,
2013-06-02 08:56:00,67.3,60.6,29.77,WSW,247,3.0,4.0,79,0.00,,,0.00,Wunderground v.1.15,2013-06-02 12:56:00,
2013-06-02 09:01:00,67.4,60.7,29.77,SSE,152,3.0,3.0,79,0.00,,,0.00,Wunderground v.1.15,2013-06-02 13:01:00,
2013-06-02 09:11:00,67.7,61.0,29.77,WSW,243,3.0,5.0,79,0.00,,,0.00,Wunderground v.1.15,2013-06-02 13:11:00,
2013-06-02 09:21:00,67.8,60.7,29.77,West,270,3.0,3.0,78,0.00,,,0.00,Wunderground v.1.15,2013-06-02 13:21:00,
2013-06-02 09:31:00,68.3,60.8,29.77,West,274,2.0,3.0,77,0.00,,,0.00,Wunderground v.1.15,2013-06-02 13:31:00,
2013-06-02 09:41:00,67.7,60.2,29.77,SW,231,4.0,4.0,77,0.00,,,0.00,Wunderground v.1.15,2013-06-02 13:41:00,
2013-06-02 09:51:00,67.9,60.4,29.77,WSW,250,2.0,2.0,77,0.00,,,0.00,Wunderground v.1.15,2013-06-02 13:51:00,
2013-06-02 10:01:00,68.5,60.3,29.77,West,273,2.0,2.0,75,0.00,,,0.00,Wunderground v.1.15,2013-06-02 14:01:00,
2013-06-02 10:06:00,69.3,61.4,29.78,SW,232,2.0,4.0,76,0.00,,,0.00,Wunderground v.1.15,2013-06-02 14:06:00,
2013-06-02 10:15:00,69.4,60.0,29.78,East,96,3.0,4.0,72,0.00,,,0.00,Wunderground v.1.15,2013-06-02 14:15:00,
2013-06-02 10:21:00,69.3,59.9,29.78,WSW,238,3.0,4.0,72,0.00,,,0.00,Wunderground v.1.15,2013-06-02 14:21:00,
2013-06-02 10:31:00,70.4,61.7,29.78,West,260,2.0,2.0,74,0.00,,,0.00,Wunderground v.1.15,2013-06-02 14:31:00,
2013-06-02 10:40:00,70.4,60.5,29.78,WSW,252,3.0,4.0,71,0.00,,,0.00,Wunderground v.1.15,2013-06-02 14:40:00,
2013-06-02 10:46:00,71.0,61.1,29.78,West,272,3.0,4.0,71,0.00,,,0.00,Wunderground v.1.15,2013-06-02 14:46:00,
2013-06-02 10:56:00,71.6,61.3,29.79,WSW,252,3.0,3.0,70,0.00,,,0.00,Wunderground v.1.15,2013-06-02 14:56:00,
2013-06-02 11:01:00,71.0,60.7,29.79,West,263,3.0,3.0,70,0.00,,,0.00,Wunderground v.1.15,2013-06-02 15:01:00,
2013-06-02 11:11:00,71.1,60.8,29.79,SW,230,3.0,3.0,70,0.00,,,0.00,Wunderground v.1.15,2013-06-02 15:11:00,
2013-06-02 11:21:00,70.6,59.9,29.80,SW,233,3.0,3.0,69,0.00,,,0.00,Wunderground v.1.15,2013-06-02 15:21:00,
2013-06-02 11:30:00,70.5,60.2,29.80,WSW,254,2.0,2.0,70,0.00,,,0.00,Wunderground v.1.15,2013-06-02 15:30:00,
2013-06-02 11:36:00,70.3,60.1,29.80,WSW,244,2.0,3.0,70,0.00,,,0.00,Wunderground v.1.15,2013-06-02 15:36:00,
2013-06-02 11:45:00,69.7,60.3,29.80,WSW,255,2.0,2.0,72,0.00,,,0.00,Wunderground v.1.15,2013-06-02 15:45:00,
2013-06-02 11:51:00,69.9,60.5,29.80,WSW,242,2.0,2.0,72,0.00,,,0.00,Wunderground v.1.15,2013-06-02 15:51:00,
2013-06-02 12:01:00,70.7,60.8,29.81,WSW,239,3.0,4.0,71,0.00,,,0.00,Wunderground v.1.15,2013-06-02 16:01:00,
2013-06-02 12:10:00,69.8,60.0,29.81,WSW,248,3.0,3.0,71,0.00,,,0.00,Wunderground v.1.15,2013-06-02 16:10:00,
2013-06-02 12:16:00,69.7,60.7,29.81,WSW,241,2.0,3.0,73,0.00,,,0.00,Wunderground v.1.15,2013-06-02 16:16:00,
2013-06-02 12:26:00,70.3,60.1,29.81,SW,229,3.0,3.0,70,0.00,,,0.00,Wunderground v.1.15,2013-06-02 16:26:00,
2013-06-02 12:35:00,70.1,60.3,29.82,SW,233,2.0,3.0,71,0.00,,,0.00,Wunderground v.1.15,2013-06-02 16:35:00,
2013-06-02 12:41:00,70.1,59.9,29.82,WNW,283,2.0,2.0,70,0.00,,,0.00,Wunderground v.1.15,2013-06-02 16:41:00,
2013-06-02 12:51:00,70.8,60.1,29.82,SSW,195,2.0,3.0,69,0.00,,,0.00,Wunderground v.1.15,2013-06-02 16:51:00,
2013-06-02 13:01:00,70.9,59.4,29.82,WSW,245,2.0,2.0,67,0.00,,,0.00,Wunderground v.1.15,2013-06-02 17:01:00,
2013-06-02 13:06:00,70.5,59.8,29.83,West,260,2.0,2.0,69,0.00,,,0.00,Wunderground v.1.15,2013-06-02 17:06:00,
2013-06-02 13:15:00,70.6,58.7,29.83,WSW,248,2.0,3.0,66,0.00,,,0.00,Wunderground v.1.15,2013-06-02 17:15:00,
2013-06-02 13:21:00,70.9,58.5,29.83,WSW,257,3.0,3.0,65,0.00,,,0.00,Wunderground v.1.15,2013-06-02 17:21:00,
2013-06-02 13:30:00,70.6,58.7,29.83,WNW,285,3.0,3.0,66,0.00,,,0.00,Wunderground v.1.15,2013-06-02 17:30:00,
2013-06-02 13:36:00,70.5,59.8,29.83,WNW,283,2.0,3.0,69,0.00,,,0.00,Wunderground v.1.15,2013-06-02 17:36:00,
2013-06-02 13:46:00,71.0,59.1,29.83,SW,236,3.0,5.0,66,0.00,,,0.00,Wunderground v.1.15,2013-06-02 17:46:00,
2013-06-02 13:55:00,70.9,58.5,29.84,WSW,239,2.0,2.0,65,0.00,,,0.00,Wunderground v.1.15,2013-06-02 17:55:00,
2013-06-02 14:01:00,70.7,58.4,29.84,West,260,2.0,2.0,65,0.00,,,0.00,Wunderground v.1.15,2013-06-02 18:01:00,
2013-06-02 14:10:00,70.8,58.9,29.84,West,280,2.0,6.0,66,0.00,,,0.00,Wunderground v.1.15,2013-06-02 18:10:00,
2013-06-02 14:16:00,71.4,58.6,29.84,West,262,4.0,6.0,64,0.00,,,0.00,Wunderground v.1.15,2013-06-02 18:16:00,
2013-06-02 14:26:00,72.0,58.3,29.84,WSW,254,4.0,4.0,62,0.00,,,0.00,Wunderground v.1.15,2013-06-02 18:26:00,
2013-06-02 14:35:00,72.7,58.0,29.84,West,268,3.0,4.0,60,0.00,,,0.00,Wunderground v.1.15,2013-06-02 18:35:00,
2013-06-02 14:41:00,72.3,57.6,29.84,SW,234,4.0,5.0,60,0.00,,,0.00,Wunderground v.1.15,2013-06-02 18:41:00,
2013-06-02 14:51:00,73.3,59.5,29.84,WSW,248,2.0,3.0,62,0.00,,,0.00,Wunderground v.1.15,2013-06-02 18:51:00,
2013-06-02 15:01:00,73.3,57.6,29.85,West,281,3.0,3.0,58,0.00,,,0.01,Wunderground v.1.15,2013-06-02 19:01:00,
2013-06-02 15:11:00,72.6,57.0,29.85,West,261,3.0,5.0,58,0.00,,,0.01,Wunderground v.1.15,2013-06-02 19:11:00,
2013-06-02 15:21:00,73.5,58.8,29.85,SW,236,3.0,3.0,60,0.00,,,0.01,Wunderground v.1.15,2013-06-02 19:21:00,
2013-06-02 15:31:00,73.2,58.5,29.85,West,263,3.0,3.0,60,0.00,,,0.02,Wunderground v.1.15,2013-06-02 19:31:00,
2013-06-02 15:40:00,73.3,58.1,29.85,West,266,2.0,2.0,59,0.00,,,0.02,Wunderground v.1.15,2013-06-02 19:40:00,
2013-06-02 15:46:00,72.8,58.1,29.86,WNW,290,2.0,2.0,60,0.00,,,0.02,Wunderground v.1.15,2013-06-02 19:46:00,
2013-06-02 15:56:00,72.1,57.9,29.86,WSW,248,3.0,5.0,61,0.00,,,0.02,Wunderground v.1.15,2013-06-02 19:56:00,
2013-06-02 16:01:00,72.4,57.7,29.86,WNW,297,3.0,3.0,60,0.00,,,0.02,Wunderground v.1.15,2013-06-02 20:01:00,
2013-06-02 16:11:00,72.3,56.7,29.86,WNW,285,3.0,3.0,58,0.00,,,0.02,Wunderground v.1.15,2013-06-02 20:11:00,
2013-06-02 16:20:00,72.4,58.2,29.86,West,271,3.0,3.0,61,0.00,,,0.02,Wunderground v.1.15,2013-06-02 20:20:00,
2013-06-02 16:26:00,72.7,55.6,29.86,West,276,2.0,3.0,55,0.00,,,0.02,Wunderground v.1.15,2013-06-02 20:26:00,
2013-06-02 16:36:00,72.2,56.6,29.86,WNW,293,4.0,4.0,58,0.00,,,0.02,Wunderground v.1.15,2013-06-02 20:36:00,
2013-06-02 16:46:00,72.2,57.1,29.86,WNW,300,3.0,5.0,59,0.00,,,0.02,Wunderground v.1.15,2013-06-02 20:46:00,
2013-06-02 16:56:00,71.7,57.5,29.86,WNW,290,3.0,3.0,61,0.00,,,0.02,Wunderground v.1.15,2013-06-02 20:56:00,
2013-06-02 17:01:00,71.4,56.8,29.86,West,280,3.0,3.0,60,0.00,,,0.02,Wunderground v.1.15,2013-06-02 21:01:00,
2013-06-02 17:06:00,71.4,56.8,29.86,WNW,285,3.0,3.0,60,0.00,,,0.02,Wunderground v.1.15,2013-06-02 21:06:00,
2013-06-02 17:16:00,70.6,56.5,29.87,WSW,248,3.0,4.0,61,0.00,,,0.02,Wunderground v.1.15,2013-06-02 21:16:00,
2013-06-02 17:25:00,70.1,56.5,29.87,WNW,293,3.0,3.0,62,0.00,,,0.02,Wunderground v.1.15,2013-06-02 21:25:00,
2013-06-02 17:31:00,70.1,56.9,29.87,West,275,3.0,3.0,63,0.00,,,0.02,Wunderground v.1.15,2013-06-02 21:31:00,
2013-06-02 17:41:00,70.2,56.6,29.87,WNW,288,2.0,2.0,62,0.00,,,0.02,Wunderground v.1.15,2013-06-02 21:41:00,
2013-06-02 17:50:00,70.2,57.0,29.87,NW,319,2.0,3.0,63,0.00,,,0.02,Wunderground v.1.15,2013-06-02 21:50:00,
2013-06-02 17:56:00,70.3,55.8,29.87,West,276,2.0,3.0,60,0.00,,,0.02,Wunderground v.1.15,2013-06-02 21:56:00,
2013-06-02 18:01:00,70.1,56.0,29.87,WSW,252,2.0,2.0,61,0.00,,,0.02,Wunderground v.1.15,2013-06-02 22:01:00,
2013-06-02 18:11:00,69.6,56.9,29.87,WNW,286,3.0,3.0,64,0.00,,,0.02,Wunderground v.1.15,2013-06-02 22:11:00,
2013-06-02 18:21:00,69.3,56.2,29.87,WNW,285,2.0,2.0,63,0.00,,,0.02,Wunderground v.1.15,2013-06-02 22:21:00,
2013-06-02 18:30:00,68.8,55.7,29.87,WSW,253,3.0,3.0,63,0.00,,,0.02,Wunderground v.1.15,2013-06-02 22:30:00,
2013-06-02 18:36:00,69.2,56.5,29.88,NW,309,2.0,3.0,64,0.00,,,0.02,Wunderground v.1.15,2013-06-02 22:36:00,
2013-06-02 18:45:00,69.2,56.5,29.87,West,268,2.0,2.0,64,0.00,,,0.02,Wunderground v.1.15,2013-06-02 22:45:00,
2013-06-02 18:51:00,68.9,55.3,29.87,West,264,2.0,5.0,62,0.00,,,0.02,Wunderground v.1.15,2013-06-02 22:51:00,
2013-06-02 19:01:00,68.4,56.2,29.87,WSW,253,2.0,2.0,65,0.00,,,0.02,Wunderground v.1.15,2013-06-02 23:01:00,
2013-06-02 19:11:00,68.1,55.9,29.88,WNW,297,3.0,4.0,65,0.00,,,0.02,Wunderground v.1.15,2013-06-02 23:11:00,
2013-06-02 19:16:00,67.6,55.4,29.88,West,259,3.0,4.0,65,0.00,,,0.02,Wunderground v.1.15,2013-06-02 23:16:00,
2013-06-02 19:26:00,66.8,55.5,29.89,NW,307,3.0,4.0,67,0.00,,,0.03,Wunderground v.1.15,2013-06-02 23:26:00,
2013-06-02 19:31:00,66.1,54.4,29.89,WNW,294,3.0,3.0,66,0.00,,,0.03,Wunderground v.1.15,2013-06-02 23:31:00,
2013-06-02 19:40:00,65.5,54.2,29.89,WSW,251,3.0,4.0,67,0.00,,,0.03,Wunderground v.1.15,2013-06-02 23:40:00,
2013-06-02 19:46:00,65.2,54.0,29.90,WSW,250,2.0,4.0,67,0.00,,,0.03,Wunderground v.1.15,2013-06-02 23:46:00,
2013-06-02 19:56:00,64.6,53.4,29.90,West,271,3.0,3.0,67,0.00,,,0.03,Wunderground v.1.15,2013-06-02 23:56:00,
2013-06-02 20:01:00,64.1,53.3,29.90,WNW,282,3.0,3.0,68,0.00,,,0.03,Wunderground v.1.15,2013-06-03 00:01:00,
2013-06-02 20:11:00,63.4,53.0,29.91,NE,34,2.0,7.0,69,0.00,,,0.03,Wunderground v.1.15,2013-06-03 00:11:00,
2013-06-02 20:21:00,62.5,52.6,29.91,WNW,288,2.0,2.0,70,0.00,,,0.03,Wunderground v.1.15,2013-06-03 00:21:00,
2013-06-02 20:26:00,62.0,52.1,29.91,NW,323,2.0,2.0,70,0.00,,,0.03,Wunderground v.1.15,2013-06-03 00:26:00,
2013-06-02 20:36:00,61.1,51.6,29.92,West,269,2.0,3.0,71,0.00,,,0.03,Wunderground v.1.15,2013-06-03 00:36:00,
2013-06-02 20:45:00,60.5,51.0,29.92,WNW,288,2.0,3.0,71,0.00,,,0.03,Wunderground v.1.15,2013-06-03 00:45:00,
2013-06-02 20:51:00,60.2,51.1,29.92,WNW,283,3.0,4.0,72,0.00,,,0.03,Wunderground v.1.15,2013-06-03 00:51:00,
2013-06-02 21:01:00,59.8,51.1,29.92,WNW,283,1.0,1.0,73,0.00,,,0.03,Wunderground v.1.15,2013-06-03 01:01:00,
2013-06-02 21:10:00,59.3,50.3,29.92,West,280,2.0,2.0,72,0.00,,,0.03,Wunderground v.1.15,2013-06-03 01:10:00,
2013-06-02 21:16:00,59.2,50.5,29.93,WNW,283,1.0,2.0,73,0.00,,,0.03,Wunderground v.1.15,2013-06-03 01:16:00,
2013-06-02 21:26:00,58.8,50.2,29.93,WNW,287,1.0,1.0,73,0.00,,,0.03,Wunderground v.1.15,2013-06-03 01:26:00,
2013-06-02 21:36:00,58.6,50.0,29.94,West,271,0.0,1.0,73,0.00,,,0.03,Wunderground v.1.15,2013-06-03 01:36:00,
2013-06-02 21:41:00,58.4,50.1,29.94,West,275,0.0,0.0,74,0.00,,,0.03,Wunderground v.1.15,2013-06-03 01:41:00,
2013-06-02 21:51:00,58.2,50.3,29.95,West,274,1.0,1.0,75,0.00,,,0.03,Wunderground v.1.15,2013-06-03 01:51:00,
2013-06-02 22:01:00,58.2,50.3,29.95,West,280,1.0,1.0,75,0.00,,,0.03,Wunderground v.1.15,2013-06-03 02:01:00,
2013-06-02 22:11:00,58.2,50.3,29.96,West,279,1.0,1.0,75,0.00,,,0.03,Wunderground v.1.15,2013-06-03 02:11:00,
2013-06-02 22:16:00,58.3,50.4,29.96,NNW,339,1.0,1.0,75,0.00,,,0.03,Wunderground v.1.15,2013-06-03 02:16:00,
2013-06-02 22:26:00,58.4,50.1,29.97,West,276,1.0,1.0,74,0.00,,,0.03,Wunderground v.1.15,2013-06-03 02:26:00,
2013-06-02 22:36:00,58.4,50.1,29.97,NNW,340,1.0,1.0,74,0.00,,,0.03,Wunderground v.1.15,2013-06-03 02:36:00,
2013-06-02 22:41:00,58.3,50.0,29.97,North,354,1.0,2.0,74,0.00,,,0.03,Wunderground v.1.15,2013-06-03 02:41:00,
2013-06-02 22:56:00,58.1,49.1,29.97,NNW,336,2.0,3.0,72,0.00,,,0.03,Wunderground v.1.15,2013-06-03 02:56:00,
2013-06-02 23:01:00,57.9,48.9,29.97,WNW,297,3.0,3.0,72,0.00,,,0.03,Wunderground v.1.15,2013-06-03 03:01:00,
2013-06-02 23:06:00,57.9,49.3,29.97,NE,55,3.0,3.0,73,0.00,,,0.03,Wunderground v.1.15,2013-06-03 03:06:00,
2013-06-02 23:16:00,57.8,49.2,29.98,NNE,18,2.0,3.0,73,0.00,,,0.03,Wunderground v.1.15,2013-06-03 03:16:00,
2013-06-02 23:26:00,57.4,48.4,29.98,NW,304,3.0,3.0,72,0.00,,,0.03,Wunderground v.1.15,2013-06-03 03:26:00,
2013-06-02 23:36:00,57.3,48.0,29.98,NNW,344,2.0,5.0,71,0.00,,,0.03,Wunderground v.1.15,2013-06-03 03:36:00,
2013-06-02 23:41:00,57.2,48.3,29.98,NW,311,2.0,2.0,72,0.00,,,0.03,Wunderground v.1.15,2013-06-03 03:41:00,
2013-06-02 23:51:00,57.1,47.8,29.99,NW,326,2.0,3.0,71,0.00,,,0.03,Wunderground v.1.15,2013-06-03 03:51:00,